QPF
0.01 0.01 0.00 0.00 0.00 0.00 0.00 0.00 0.00 0.00 0.00 0.00 0.00 0.00 0.00 0.00 0.01 0.01 0.01 0.01 0.01 0.01 0.01 0.00 0.00 0.00 0.00 0.00 0.00 0.00 0.00 0.00 0.00 0.00 0.00 0.01 0.01 0.01
0.01 0.01 0.00 0.00 0.00 0.00 0.00 0.00 0.00 0.00 0.00 0.00 0.00 0.00 0.00 0.00 0.01 0.01 0.01 0.02 0.01 0.01 0.01 0.01 0.01 0.01 0.01 0.01 0.01 0.00 0.00 0.00 0.00 0.00 0.00 0.00 0.00 0.00
0.01 0.01 0.01 0.00 0.00 0.00 0.00 0.00 0.00 0.00 0.00 0.00 0.00 0.00 0.00 0.00 0.01 0.00 0.01 0.01 0.01 0.01 0.01 0.01 0.01 0.01 0.01 0.01 0.01 0.01 0.01 0.01 0.00 0.00 0.00 0.00 0.00 0.00
0.02 0.02 0.02 0.02 0.02 0.01 0.01 0.01 0.01 0.00 0.00 0.00 0.00 0.00 0.00 0.00 0.00 0.00 0.01 0.01 0.01 0.02 0.02 0.01 0.01 0.01 0.01 0.01 0.01 0.01 0.01 0.01 0.00 0.00 0.00 0.00 0.00 0.00
0.03 0.03 0.03 0.04 0.04 0.03 0.03 0.02 0.01 0.01 0.00 0.00 0.00 0.00 0.00 0.00 0.00 0.00 0.01 0.01 0.01 0.01 0.01 0.01 0.00 0.00 0.00 0.00 0.00 0.00 0.00 0.00 0.00 0.00 0.00 0.00 0.00 0.00
0.05 0.04 0.03 0.04 0.04 0.03 0.03 0.02 0.01 0.01 0.01 0.00 0.00 0.00 0.00 0.00 0.00 0.00 0.01 0.01 0.01 0.01 0.01 0.01 0.00 0.00 0.00 0.00 0.00 0.00 0.00 0.00 0.00 0.00 0.00 0.00 0.00 0.00
0.09 0.08 0.07 0.05 0.05 0.04 0.02 0.01 0.01 0.01 0.01 0.00 0.00 0.00 0.00 0.00 0.00 0.00 0.00 0.01 0.00 0.00 0.01 0.01 0.01 0.01 0.00 0.00 0.00 0.00 0.00 0.00 0.01 0.01 0.00 0.00 0.00 0.00
0.07 0.08 0.08 0.07 0.06 0.05 0.04 0.03 0.02 0.02 0.01 0.01 0.01 0.01 0.01 0.01 0.00 0.00 0.00 0.00 0.00 0.00 0.00 0.00 0.00 0.01 0.01 0.01 0.01 0.01 0.00 0.00 0.00 0.00 0.01 0.00 0.00 0.00
0.07 0.07 0.07 0.06 0.06 0.05 0.05 0.04 0.04 0.03 0.03 0.02 0.03 0.02 0.02 0.02 0.02 0.01 0.01 0.01 0.00 0.00 0.00 0.00 0.00 0.00 0.00 0.01 0.01 0.01 0.01 0.00 0.00 0.00 0.00 0.00 0.00 0.00
0.04 0.03 0.03 0.03 0.03 0.04 0.04 0.05 0.04 0.03 0.02 0.02 0.02 0.01 0.01 0.01 0.01 0.01 0.01 0.01 0.01 0.01 0.01 0.01 0.01 0.01 0.01 0.01 0.01 0.01 0.01 0.01 0.01 0.01 0.01 0.01 0.01 0.01
0.02 0.02 0.02 0.02 0.03 0.03 0.02 0.02 0.02 0.01 0.02 0.02 0.01 0.01 0.01 0.01 0.01 0.01 0.00 0.00 0.00 0.01 0.01 0.01 0.01 0.01 0.01 0.01 0.01 0.01 0.01 0.01 0.01 0.00 0.00 0.00 0.00 0.00
0.02 0.02 0.02 0.02 0.02 0.02 0.02 0.01 0.01 0.01 0.01 0.01 0.01 0.01 0.01 0.01 0.01 0.01 0.01 0.01 0.01 0.01 0.01 0.00 0.00 0.00 0.01 0.01 0.01 0.00 0.00 0.00 0.00 0.00 0.00 0.00 0.00 0.00
0.03 0.03 0.03 0.03 0.03 0.03 0.03 0.02 0.02 0.01 0.01 0.01 0.01 0.00 0.00 0.00 0.00 0.00 0.01 0.01 0.01 0.01 0.00 0.00 0.00 0.00 0.00 0.00 0.00 0.00 0.00 0.00 0.00 0.00 0.00 0.00 0.00 0.00
0.04 0.04 0.03 0.02 0.01 0.01 0.01 0.01 0.01 0.00 0.00 0.00 0.00 0.00 0.00 0.00 0.00 0.00 0.00 0.00 0.00 0.00 0.00 0.00 0.00 0.00 0.00 0.00 0.00 0.00 0.00 0.00 0.00 0.00 0.00 0.00 0.00 0.00
0.02 0.01 0.01 0.01 0.00 0.00 0.00 0.00 0.00 0.00 0.00 0.00 0.00 0.00 0.00 0.00 0.00 0.00 0.00 0.00 0.00 0.00 0.00 0.00 0.00 0.00 0.00 0.00 0.00 0.00 0.00 0.00 0.00 0.00 0.00 0.00 0.00 0.00
0.01 0.01 0.01 0.01 0.01 0.00 0.00 0.00 0.00 0.00 0.00 0.00 0.00 0.00 0.00 0.00 0.00 0.00 0.00 0.00 0.00 0.00 0.00 0.00 0.00 0.00 0.00 0.00 0.00 0.00 0.00 0.00 0.00 0.00 0.00 0.00 0.00 0.00
0.01 0.01 0.01 0.01 0.01 0.01 0.01 0.01 0.00 0.00 0.00 0.00 0.00 0.00 0.00 0.00 0.00 0.00 0.00 0.00 0.00 0.00 0.00 0.00 0.00 0.00 0.00 0.00 0.00 0.00 0.00 0.00 0.00 0.00 0.00 0.00 0.00 0.00
0.00 0.00 0.00 0.00 0.00 0.00 0.00 0.00 0.00 0.00 0.00 0.00 0.00 0.00 0.00 0.00 0.00 0.00 0.00 0.00 0.00 0.00 0.00 0.00 0.00 0.00 0.00 0.00 0.00 0.00 0.00 0.00 0.00 0.00 0.00 0.00 0.00 0.00
0.00 0.00 0.00 0.00 0.00 0.00 0.00 0.00 0.00 0.00 0.00 0.00 0.00 0.00 0.00 0.00 0.00 0.00 0.00 0.00 0.00 0.00 0.00 0.00 0.00 0.00 0.00 0.00 0.00 0.00 0.00 0.00 0.00 0.00 0.00 0.00 0.01 0.01
0.00 0.00 0.00 0.00 0.00 0.00 0.00 0.00 0.00 0.00 0.00 0.00 0.00 0.00 0.00 0.00 0.00 0.00 0.00 0.00 0.00 0.00 0.00 0.00 0.00 0.00 0.00 0.01 0.00 0.00 0.00 0.00 0.01 0.01 0.00 0.00 0.00 0.01
0.00 0.00 0.00 0.00 0.00 0.00 0.00 0.00 0.00 0.00 0.00 0.00 0.00 0.00 0.00 0.00 0.00 0.00 0.00 0.00 0.00 0.00 0.00 0.00 0.00 0.00 0.00 0.00 0.00 0.00 0.00 0.00 0.00 0.01 0.01 0.01 0.01 0.00
0.00 0.00 0.00 0.00 0.00 0.00 0.00 0.00 0.00 0.00 0.00 0.00 0.00 0.00 0.00 0.00 0.00 0.00 0.00 0.00 0.00 0.00 0.00 0.00 0.00 0.00 0.00 0.00 0.00 0.00 0.00 0.00 0.00 0.00 0.01 0.01 0.01 0.01
0.00 0.00 0.00 0.00 0.01 0.01 0.01 0.00 0.00 0.00 0.00 0.00 0.00 0.00 0.00 0.00 0.00 0.00 0.00 0.00 0.00 0.00 0.00 0.00 0.00 0.00 0.00 0.00 0.00 0.00 0.00 0.00 0.00 0.00 0.00 0.00 0.01 0.01
MSLP
1019.57 1019.93 1020.29 1020.63 1020.92 1021.15 1021.30 1021.38 1021.39 1021.35 1021.28 1021.17 1021.05 1020.91 1020.77 1020.64 1020.51 1020.42 1020.36 1020.36 1020.41 1020.52 1020.67 1020.83 1020.99 1021.11 1021.17 1021.16 1021.09 1020.96 1020.81 1020.66 1020.54 1020.46 1020.41 1020.40 1020.41 1020.40
1019.49 1019.82 1020.14 1020.44 1020.70 1020.91 1021.06 1021.17 1021.23 1021.26 1021.27 1021.25 1021.22 1021.16 1021.08 1020.98 1020.87 1020.77 1020.70 1020.66 1020.67 1020.74 1020.86 1020.99 1021.13 1021.24 1021.29 1021.28 1021.19 1021.06 1020.89 1020.71 1020.55 1020.42 1020.33 1020.26 1020.22 1020.17
1019.44 1019.74 1020.03 1020.30 1020.53 1020.72 1020.88 1021.02 1021.14 1021.25 1021.35 1021.43 1021.50 1021.53 1021.52 1021.47 1021.39 1021.29 1021.18 1021.10 1021.07 1021.08 1021.14 1021.24 1021.34 1021.42 1021.46 1021.44 1021.36 1021.21 1021.03 1020.83 1020.63 1020.46 1020.32 1020.21 1020.11 1020.01
1019.47 1019.76 1020.03 1020.27 1020.48 1020.67 1020.84 1021.01 1021.18 1021.36 1021.55 1021.73 1021.89 1022.01 1022.07 1022.06 1022.00 1021.89 1021.76 1021.64 1021.54 1021.49 1021.49 1021.52 1021.58 1021.63 1021.65 1021.62 1021.53 1021.38 1021.19 1020.98 1020.76 1020.55 1020.37 1020.20 1020.05 1019.89
1019.61 1019.90 1020.16 1020.40 1020.61 1020.79 1020.98 1021.18 1021.39 1021.63 1021.88 1022.13 1022.36 1022.55 1022.66 1022.69 1022.65 1022.53 1022.38 1022.20 1022.05 1021.93 1021.85 1021.82 1021.82 1021.83 1021.82 1021.78 1021.68 1021.54 1021.34 1021.12 1020.89 1020.66 1020.43 1020.22 1020.01 1019.79
1019.86 1020.17 1020.46 1020.70 1020.92 1021.12 1021.31 1021.52 1021.76 1022.03 1022.31 1022.61 1022.88 1023.10 1023.25 1023.30 1023.26 1023.14 1022.96 1022.75 1022.54 1022.36 1022.22 1022.12 1022.07 1022.03 1021.99 1021.92 1021.81 1021.66 1021.47 1021.24 1020.99 1020.74 1020.49 1020.23 1019.98 1019.71
1020.20 1020.57 1020.89 1021.17 1021.41 1021.62 1021.82 1022.03 1022.27 1022.53 1022.82 1023.12 1023.40 1023.63 1023.78 1023.85 1023.81 1023.69 1023.49 1023.25 1023.00 1022.77 1022.58 1022.42 1022.31 1022.22 1022.14 1022.04 1021.92 1021.75 1021.55 1021.31 1021.06 1020.78 1020.50 1020.22 1019.93 1019.62
1020.62 1021.05 1021.42 1021.74 1022.02 1022.25 1022.45 1022.66 1022.87 1023.11 1023.37 1023.64 1023.89 1024.11 1024.25 1024.31 1024.28 1024.15 1023.95 1023.70 1023.44 1023.17 1022.94 1022.74 1022.57 1022.43 1022.30 1022.17 1022.01 1021.82 1021.59 1021.34 1021.06 1020.77 1020.47 1020.16 1019.83 1019.49
1021.09 1021.58 1022.02 1022.39 1022.70 1022.95 1023.16 1023.35 1023.53 1023.73 1023.94 1024.15 1024.36 1024.54 1024.66 1024.71 1024.67 1024.56 1024.37 1024.12 1023.85 1023.57 1023.31 1023.07 1022.86 1022.67 1022.49 1022.30 1022.09 1021.86 1021.60 1021.32 1021.01 1020.70 1020.37 1020.02 1019.67 1019.30
1021.61 1022.15 1022.64 1023.06 1023.41 1023.68 1023.89 1024.06 1024.21 1024.35 1024.50 1024.66 1024.81 1024.94 1025.03 1025.06 1025.03 1024.92 1024.75 1024.52 1024.26 1023.98 1023.70 1023.43 1023.18 1022.93 1022.69 1022.44 1022.18 1021.89 1021.58 1021.25 1020.90 1020.54 1020.18 1019.81 1019.43 1019.03
1022.17 1022.74 1023.27 1023.73 1024.10 1024.39 1024.61 1024.76 1024.88 1024.97 1025.07 1025.16 1025.25 1025.34 1025.39 1025.41 1025.37 1025.28 1025.12 1024.91 1024.66 1024.39 1024.10 1023.80 1023.50 1023.21 1022.90 1022.59 1022.25 1021.90 1021.52 1021.13 1020.73 1020.33 1019.92 1019.51 1019.10 1018.68
1022.78 1023.36 1023.91 1024.38 1024.78 1025.08 1025.29 1025.43 1025.53 1025.59 1025.63 1025.67 1025.72 1025.75 1025.78 1025.77 1025.72 1025.63 1025.48 1025.29 1025.05 1024.77 1024.47 1024.14 1023.81 1023.46 1023.09 1022.71 1022.30 1021.88 1021.43 1020.98 1020.51 1020.05 1019.58 1019.13 1018.68 1018.23
1023.45 1024.02 1024.55 1025.02 1025.42 1025.72 1025.94 1026.07 1026.15 1026.18 1026.19 1026.20 1026.19 1026.19 1026.18 1026.14 1026.08 1025.97 1025.82 1025.62 1025.38 1025.09 1024.77 1024.42 1024.05 1023.65 1023.23 1022.78 1022.31 1021.82 1021.31 1020.78 1020.25 1019.72 1019.20 1018.69 1018.19 1017.71
1024.17 1024.68 1025.18 1025.63 1026.01 1026.31 1026.52 1026.66 1026.73 1026.75 1026.74 1026.71 1026.68 1026.64 1026.58 1026.52 1026.42 1026.29 1026.12 1025.90 1025.64 1025.33 1024.99 1024.61 1024.20 1023.76 1023.29 1022.79 1022.27 1021.72 1021.15 1020.56 1019.97 1019.38 1018.79 1018.23 1017.68 1017.14
1024.90 1025.35 1025.79 1026.20 1026.55 1026.84 1027.05 1027.18 1027.25 1027.27 1027.25 1027.20 1027.14 1027.07 1026.98 1026.86 1026.73 1026.56 1026.35 1026.10 1025.80 1025.46 1025.09 1024.68 1024.24 1023.77 1023.27 1022.73 1022.17 1021.57 1020.96 1020.32 1019.67 1019.02 1018.38 1017.76 1017.15 1016.57
1025.61 1025.98 1026.35 1026.71 1027.03 1027.29 1027.49 1027.63 1027.70 1027.72 1027.70 1027.65 1027.56 1027.46 1027.33 1027.17 1026.98 1026.76 1026.50 1026.21 1025.87 1025.50 1025.09 1024.66 1024.19 1023.69 1023.17 1022.61 1022.02 1021.40 1020.74 1020.07 1019.38 1018.68 1017.99 1017.31 1016.65 1016.01
1026.23 1026.53 1026.84 1027.15 1027.43 1027.67 1027.86 1028.00 1028.08 1028.10 1028.09 1028.03 1027.93 1027.80 1027.63 1027.42 1027.19 1026.91 1026.59 1026.25 1025.86 1025.45 1025.01 1024.55 1024.06 1023.55 1023.01 1022.44 1021.83 1021.19 1020.51 1019.81 1019.09 1018.35 1017.61 1016.89 1016.18 1015.50
1026.76 1026.99 1027.25 1027.50 1027.75 1027.97 1028.15 1028.29 1028.38 1028.42 1028.40 1028.34 1028.24 1028.08 1027.88 1027.63 1027.35 1027.02 1026.65 1026.25 1025.82 1025.37 1024.90 1024.41 1023.90 1023.37 1022.81 1022.23 1021.61 1020.95 1020.26 1019.53 1018.78 1018.02 1017.25 1016.49 1015.74 1015.03
1027.17 1027.36 1027.57 1027.79 1028.01 1028.21 1028.39 1028.53 1028.62 1028.67 1028.67 1028.61 1028.50 1028.33 1028.10 1027.82 1027.49 1027.11 1026.70 1026.25 1025.78 1025.29 1024.79 1024.27 1023.73 1023.18 1022.60 1021.99 1021.35 1020.68 1019.97 1019.23 1018.46 1017.67 1016.89 1016.10 1015.34 1014.59
1027.50 1027.66 1027.84 1028.04 1028.23 1028.42 1028.59 1028.74 1028.84 1028.90 1028.91 1028.85 1028.74 1028.55 1028.30 1028.00 1027.63 1027.22 1026.76 1026.28 1025.77 1025.24 1024.70 1024.15 1023.58 1022.99 1022.38 1021.75 1021.08 1020.38 1019.64 1018.88 1018.10 1017.30 1016.51 1015.72 1014.94 1014.19
1027.78 1027.92 1028.08 1028.26 1028.44 1028.62 1028.79 1028.93 1029.05 1029.11 1029.13 1029.08 1028.96 1028.77 1028.51 1028.18 1027.79 1027.34 1026.86 1026.34 1025.80 1025.23 1024.65 1024.06 1023.45 1022.82 1022.17 1021.49 1020.78 1020.05 1019.29 1018.50 1017.71 1016.91 1016.12 1015.34 1014.58 1013.84
1028.03 1028.17 1028.32 1028.48 1028.65 1028.82 1028.98 1029.13 1029.25 1029.32 1029.34 1029.29 1029.17 1028.98 1028.70 1028.36 1027.95 1027.49 1026.98 1026.43 1025.85 1025.25 1024.64 1024.00 1023.35 1022.67 1021.97 1021.24 1020.49 1019.71 1018.92 1018.12 1017.32 1016.53 1015.75 1014.99 1014.26 1013.54
1028.29 1028.41 1028.54 1028.69 1028.85 1029.01 1029.17 1029.31 1029.43 1029.50 1029.53 1029.48 1029.36 1029.16 1028.88 1028.52 1028.10 1027.62 1027.09 1026.52 1025.92 1025.29 1024.64 1023.97 1023.26 1022.54 1021.79 1021.01 1020.21 1019.40 1018.58 1017.77 1016.97 1016.19 1015.44 1014.72 1014.02 1013.34
Thickness
5709 5708 5708 5707 5707 5707 5706 5705 5700 5695 5695 5698 5701 5703 5704 5704 5703 5702 5701 5700 5698 5697 5695 5693 5691 5689 5688 5686 5685 5684 5683 5682 5681 5680 5679 5679 5678 5678
5704 5704 5703 5703 5703 5703 5703 5702 5700 5697 5692 5694 5694 5695 5696 5697 5696 5696 5694 5693 5692 5691 5689 5687 5685 5684 5682 5681 5680 5679 5678 5677 5676 5676 5675 5674 5674 5673
5700 5699 5698 5698 5697 5697 5697 5696 5694 5693 5689 5688 5687 5688 5688 5688 5687 5687 5686 5685 5683 5682 5681 5679 5678 5676 5675 5673 5672 5671 5671 5670 5669 5669 5668 5668 5667 5667
5694 5693 5692 5692 5690 5690 5690 5689 5687 5686 5684 5681 5679 5679 5678 5678 5677 5677 5676 5674 5673 5672 5671 5669 5668 5666 5665 5664 5663 5662 5662 5661 5660 5660 5660 5659 5659 5659
5689 5688 5686 5685 5683 5683 5682 5681 5680 5679 5677 5674 5671 5669 5668 5668 5667 5666 5664 5663 5662 5660 5659 5657 5656 5655 5654 5653 5652 5651 5651 5650 5650 5649 5649 5649 5649 5649
5682 5681 5679 5678 5676 5675 5673 5672 5671 5669 5667 5665 5661 5658 5656 5655 5654 5653 5651 5650 5648 5647 5646 5645 5643 5642 5641 5640 5640 5638 5638 5637 5637 5637 5636 5636 5637 5637
5673 5672 5670 5669 5668 5666 5664 5662 5660 5658 5655 5653 5649 5646 5644 5642 5640 5639 5638 5636 5635 5633 5632 5632 5630 5629 5627 5626 5625 5624 5623 5623 5622 5622 5622 5623 5623 5623
5662 5659 5658 5657 5656 5654 5652 5650 5649 5646 5643 5640 5636 5633 5629 5628 5626 5626 5624 5623 5622 5619 5618 5617 5615 5614 5612 5611 5609 5609 5608 5608 5607 5607 5607 5607 5608 5608
5651 5649 5647 5643 5642 5640 5638 5636 5634 5632 5630 5627 5622 5619 5616 5614 5612 5611 5609 5607 5605 5603 5602 5603 5600 5598 5596 5595 5593 5592 5591 5591 5590 5590 5590 5591 5591 5592
5639 5636 5634 5631 5629 5627 5625 5621 5617 5614 5612 5610 5607 5603 5600 5598 5597 5595 5592 5590 5588 5586 5585 5586 5585 5582 5580 5578 5576 5575 5574 5573 5572 5572 5572 5572 5573 5574
5626 5623 5621 5618 5615 5613 5611 5606 5601 5597 5594 5592 5589 5586 5584 5582 5580 5579 5576 5575 5574 5570 5566 5566 5566 5565 5564 5561 5558 5556 5555 5554 5554 5554 5554 5554 5554 5555
5613 5609 5607 5604 5601 5599 5595 5591 5585 5580 5578 5575 5572 5569 5566 5563 5561 5558 5556 5555 5553 5552 5548 5546 5545 5544 5546 5544 5540 5537 5536 5535 5534 5534 5534 5534 5533 5535
5600 5595 5591 5588 5586 5582 5578 5573 5568 5564 5560 5557 5553 5550 5547 5544 5541 5538 5535 5533 5531 5530 5527 5525 5524 5522 5520 5523 5522 5518 5517 5517 5516 5516 5516 5515 5514 5513
5586 5581 5576 5573 5570 5565 5561 5556 5551 5548 5543 5539 5535 5530 5527 5524 5520 5518 5515 5512 5509 5507 5505 5502 5501 5499 5498 5500 5502 5501 5498 5497 5497 5497 5497 5497 5497 5497
5572 5566 5561 5557 5553 5548 5543 5539 5534 5530 5525 5520 5515 5510 5506 5502 5500 5498 5495 5492 5490 5487 5485 5482 5480 5479 5477 5478 5480 5481 5482 5482 5480 5479 5480 5480 5481 5483
5556 5550 5545 5540 5535 5530 5525 5520 5515 5510 5505 5500 5495 5490 5486 5484 5481 5478 5475 5473 5471 5469 5465 5463 5461 5459 5459 5459 5459 5462 5463 5464 5464 5464 5465 5466 5467 5468
5541 5535 5530 5524 5518 5512 5507 5501 5497 5492 5486 5481 5476 5471 5467 5464 5460 5457 5454 5452 5450 5449 5448 5445 5444 5442 5442 5442 5445 5447 5448 5448 5448 5449 5451 5455 5456 5456
5528 5519 5512 5507 5501 5495 5490 5484 5478 5472 5466 5461 5456 5452 5448 5444 5441 5437 5434 5433 5431 5430 5429 5428 5428 5430 5431 5431 5428 5431 5432 5434 5435 5436 5438 5442 5446 5447
5511 5503 5497 5490 5484 5478 5472 5466 5460 5453 5447 5443 5438 5433 5429 5425 5422 5420 5417 5415 5414 5412 5411 5411 5411 5412 5415 5419 5419 5415 5417 5420 5424 5427 5429 5432 5436 5439
5495 5488 5482 5475 5469 5463 5456 5450 5444 5437 5432 5426 5421 5416 5411 5408 5405 5403 5401 5399 5398 5397 5397 5397 5397 5397 5397 5401 5405 5407 5407 5409 5414 5418 5422 5425 5428 5431
5480 5474 5468 5462 5455 5448 5441 5435 5428 5422 5416 5410 5405 5400 5396 5393 5390 5388 5386 5384 5383 5384 5385 5386 5385 5385 5386 5390 5394 5400 5402 5402 5404 5407 5413 5417 5422 5427
5468 5462 5455 5449 5442 5435 5428 5421 5415 5409 5403 5397 5392 5387 5383 5379 5377 5375 5374 5373 5373 5373 5373 5375 5376 5377 5379 5382 5386 5391 5396 5398 5400 5402 5404 5407 5410 5416
5457 5450 5444 5437 5430 5424 5417 5411 5404 5398 5392 5386 5381 5377 5373 5369 5367 5365 5364 5364 5364 5365 5366 5367 5369 5370 5372 5374 5377 5382 5387 5392 5396 5399 5401 5402 5404 5407